Weather History for Valentine, NE

Change the Weather History Date:

Friday, June 28, 2013

  Actual Average Record
Temperature  
Mean Temperature 73 °F 72 °F  
Max Temperature 87 °F 86 °F 106 °F (1970)
Min Temperature 59 °F 58 °F 39 °F (2004)
Degree Days  
Heating Degree Days 0 1  
Month to date heating degree days 54 59  
Since 1 June heating degree days 54 59  
Since 1 July heating degree days 6942 7001  
Cooling Degree Days 8 7  
Month to date cooling degree days 137 120  
Year to date cooling degree days 176 154  
Since 1 June cooling degree days 137 120  
Growing Degree Days 23 (Base 50)    
Moisture  
Dew Point 53 °F    
Average Humidity 56    
Maximum Humidity 84    
Minimum Humidity 28    
Precipitation  
Precipitation 0.00 in 0.11 in 1.84 in (1893)
Month to date precipitation 2.45 3.35  
Year to date precipitation 11.85 10.51  
Snow  
Snow 0.00 in 0.00 in 0.00 in ()
Month to date snowfall 0.0 0.0  
Since 1 June snowfall 0.0 0.0  
Since 1 July snowfall 54.0 33.3  
Snow Depth 0.00 in    
Sea Level Pressure  
Sea Level Pressure 30.08 in    
Wind  
Wind Speed 11 mph (NNW)    
Max Wind Speed 24 mph    
Max Gust Speed 29 mph    
Visibility 10 miles    
Events      
T = Trace of Precipitation, MM = Missing Value Source: NWS Daily Summary

Daily Weather History Graph

Daily Weather History Graph

Search for Another Location

Airport:

Trip Planner

Search our weather history database for the weather conditions in past years. The results will help you decide how hot, cold, wet, or windy it might be!

Date:

Astronomy

Jun. 28, 2013 Rise Set
Actual Time 6:06 AM CDT 9:24 PM CDT
Civil Twilight 5:30 AM CDT 10:00 PM CDT
Nautical Twilight 4:45 AM CDT 10:45 PM CDT
Astronomical Twilight 3:49 AM CDT 11:41 PM CDT
Moon 12:14 AM CDT (6/28) 12:25 PM CDT (6/28)
Length of Visible Light 16h 29m
Length of Day
15h 18m
Waning Gibbous, 66% of the Moon is Illuminated
Jun 28
Waning Gibbous
Jun 29
Last Quarter
Jul 8
New
Jul 15
First Quarter
Jul 22
Full

Hourly Weather History & Observations

Time (CDT) Temp. Dew Point Humidity Pressure Visibility Wind Dir Wind Speed Gust Speed Precip Events Conditions
12:52 AM 69.1 °F 60.1 °F 73% 30.08 in 10.0 mi ENE 5.8 mph - N/A   Clear
1:52 AM 70.0 °F 57.0 °F 63% 30.09 in 10.0 mi NE 6.9 mph - N/A   Clear
2:52 AM 62.1 °F 57.0 °F 84% 30.12 in 10.0 mi WNW 6.9 mph - N/A   Clear
3:52 AM 63.0 °F 57.0 °F 81% 30.12 in 10.0 mi WNW 8.1 mph - N/A   Clear
4:52 AM 61.0 °F 55.0 °F 81% 30.11 in 10.0 mi WNW 6.9 mph - N/A   Clear
5:52 AM 60.1 °F 55.0 °F 83% 30.11 in 10.0 mi NW 6.9 mph - N/A   Clear
6:52 AM 60.1 °F 55.0 °F 83% 30.12 in 10.0 mi WNW 6.9 mph - N/A   Clear
7:52 AM 68.0 °F 55.0 °F 63% 30.11 in 10.0 mi NW 4.6 mph - N/A   Clear
8:52 AM 73.9 °F 53.1 °F 48% 30.11 in 10.0 mi North 9.2 mph 18.4 mph N/A   Clear
9:52 AM 77.0 °F 52.0 °F 42% 30.12 in 10.0 mi North 15.0 mph 21.9 mph N/A   Clear
10:52 AM 79.0 °F 51.1 °F 38% 30.11 in 10.0 mi NNW 15.0 mph 25.3 mph N/A   Clear
11:52 AM 81.0 °F 50.0 °F 34% 30.10 in 10.0 mi NNW 18.4 mph 25.3 mph N/A   Clear
12:52 PM 82.9 °F 50.0 °F 32% 30.10 in 10.0 mi NW 17.3 mph 28.8 mph N/A   Clear
1:52 PM 84.0 °F 51.1 °F 32% 30.09 in 10.0 mi NNW 18.4 mph 24.2 mph N/A   Clear
2:52 PM 86.0 °F 51.1 °F 30% 30.07 in 10.0 mi NNW 17.3 mph 25.3 mph N/A   Clear
3:52 PM 86.0 °F 50.0 °F 29% 30.06 in 10.0 mi NNW 11.5 mph 23.0 mph N/A   Clear
4:52 PM 87.1 °F 50.0 °F 28% 30.05 in 10.0 mi NNW 20.7 mph 26.5 mph N/A   Clear
5:52 PM 87.1 °F 50.0 °F 28% 30.04 in 10.0 mi NNW 16.1 mph 21.9 mph N/A   Clear
6:52 PM 86.0 °F 50.0 °F 29% 30.02 in 10.0 mi North 18.4 mph 24.2 mph N/A   Clear
7:52 PM 82.0 °F 50.0 °F 33% 30.03 in 10.0 mi North 16.1 mph 25.3 mph N/A   Clear
8:52 PM 78.1 °F 54.0 °F 43% 30.04 in 10.0 mi NNE 9.2 mph - N/A   Clear
9:52 PM 73.0 °F 54.0 °F 51% 30.05 in 10.0 mi North 8.1 mph - N/A   Clear
10:52 PM 70.0 °F 52.0 °F 53% 30.06 in 10.0 mi North 4.6 mph - N/A   Clear
11:52 PM 63.0 °F 54.0 °F 72% 30.06 in 10.0 mi WNW 5.8 mph - N/A   Clear